Location: Riverside Cemetery
(38.3047°N, 99.7773°W)
Time: 11:45:24
(UTC+00:00)

Cosmos 1743 - Pass Details

Date: 19 September 2020
Orbit: 510 x 526 km, 82.6° (Epoch: 30 October)

Event Time Altitude Azimuth Distance (km) Brightness Sun altitude
Rises 11:30:59 0° 0° (N) 2,628 6.4 -11.3°
Reaches altitude 10° 11:33:13 10° 8° (N) 1,738 5.6 -10.9°
Maximum altitude 11:36:50 41° 79° (E) 752 4.2 -10.2°
Drops below altitude 10° 11:40:25 10° 151° (SSE) 1,726 5.6 -9.5°
Sets 11:42:37 0° 159° (SSE) 2,609 6.4 -9.1°
